Wind_Speed
30 32 33 34 35 35 35 34 34 34 35 35 36 37 37 36 35 34 35 36 37 39 41 41 41 41 41 40 38 37 38 41 44 46 46 47 48 48 47 46 46 45
29 30 32 33 34 34 34 34 34 35 35 35 36 36 35 35 34 33 34 34 35 36 37 38 39 39 39 39 38 38 39 41 43 45 46 47 48 47 47 46 46 46
27 29 30 32 33 33 33 33 34 34 35 35 35 35 34 34 33 33 33 33 33 34 34 35 35 36 36 35 34 35 38 40 41 42 42 44 45 45 46 45 44 44
27 28 29 31 32 32 32 33 34 34 34 34 34 34 33 33 33 33 33 33 33 33 33 33 33 33 32 32 31 32 35 37 38 39 39 40 42 43 43 42 42 43
26 27 29 30 31 31 31 33 34 34 34 34 34 33 33 32 32 33 33 33 33 33 32 32 32 31 30 30 29 30 33 35 36 36 36 37 38 39 40 39 40 41
26 27 28 29 29 30 31 33 34 33 34 34 33 32 32 32 32 33 33 33 32 33 32 32 31 30 30 30 30 30 32 34 35 34 34 36 36 37 38 38 39 39
26 26 27 28 29 29 31 33 33 33 33 33 32 33 32 32 32 32 32 32 32 32 31 31 31 30 30 30 30 32 33 33 34 34 34 34 34 35 35 35 37 38
26 26 26 26 28 29 31 32 33 33 32 32 33 33 32 32 33 32 32 31 31 31 31 31 31 30 29 29 30 33 33 33 34 35 35 34 33 34 34 34 35 36
26 26 26 26 27 29 31 32 32 32 32 33 33 33 33 33 33 32 31 30 30 31 30 30 31 30 29 30 31 32 32 31 33 34 36 36 36 36 36 35 35 35
26 27 27 28 28 30 31 31 31 31 32 33 34 34 34 34 33 32 31 30 31 31 30 30 30 30 30 31 32 32 32 31 31 33 35 36 37 37 36 36 35 35
26 27 28 29 30 31 32 32 32 32 32 33 33 34 34 33 33 32 31 31 31 31 31 31 30 30 30 32 32 32 32 33 31 31 33 34 35 36 35 35 35 36
27 27 29 30 31 32 33 33 34 34 34 34 34 34 33 33 33 33 32 32 32 31 31 31 31 30 31 32 33 32 32 33 32 32 33 33 34 34 35 35 35 35
27 28 30 31 31 32 33 33 34 34 34 34 34 33 33 33 33 33 33 32 32 32 32 32 31 31 31 32 32 32 33 34 33 32 33 33 34 34 34 34 35 35
27 28 29 31 31 31 32 33 34 34 34 34 33 32 33 33 33 33 33 32 33 33 32 32 32 32 31 32 33 33 33 34 33 33 33 33 33 33 33 34 34 33
26 28 29 30 30 31 32 33 33 34 34 33 33 33 33 33 33 33 33 33 34 33 33 32 33 33 31 31 32 33 33 34 33 33 32 32 32 32 32 32 32 32
26 27 28 29 30 31 32 32 32 32 32 32 33 33 32 32 32 33 33 34 34 34 33 33 33 34 32 31 32 33 33 33 33 33 32 32 31 32 31 31 31 31
26 26 27 28 29 30 30 30 30 30 30 31 31 31 31 32 32 33 34 34 34 34 34 34 34 33 32 30 31 32 32 32 32 32 32 32 31 31 31 31 30 29
27 27 27 27 28 28 29 29 29 29 29 30 31 31 31 31 32 33 34 34 34 34 35 34 34 33 31 30 30 31 32 32 32 32 31 31 31 31 30 30 29 29
28 28 27 27 27 27 28 28 28 29 29 30 30 30 30 31 32 33 34 34 34 35 35 35 34 33 32 30 30 31 32 32 32 32 31 30 30 30 30 29 28 28
28 28 28 28 27 26 27 27 28 29 30 29 29 29 29 31 32 33 34 34 35 35 35 35 35 33 32 30 29 30 31 31 31 31 30 30 29 28 28 29 28 28
28 28 28 28 28 27 26 27 28 29 29 29 28 29 30 31 32 32 33 34 34 34 35 35 35 33 31 30 29 30 31 30 30 30 29 29 28 27 28 28 28 29
30 30 30 30 29 27 27 28 28 29 29 28 28 29 30 30 31 32 33 33 33 33 34 35 34 32 30 30 30 30 30 29 28 28 28 28 28 27 28 28 28 28
32 32 32 31 30 29 29 29 29 29 28 28 28 30 30 31 32 32 32 32 32 32 33 34 34 31 29 30 30 30 29 28 27 27 27 27 27 27 27 27 27 27
32 31 31 31 30 30 30 30 30 29 28 27 27 29 30 30 30 31 31 31 31 32 32 32 32 30 28 29 30 29 28 26 26 26 26 26 26 25 25 26 25 26
32 30 29 29 30 30 30 30 30 29 28 27 27 28 29 29 29 29 30 30 30 30 30 30 30 28 28 28 28 27 26 26 26 26 25 24 24 23 23 23 24 24
32 30 29 28 29 29 29 29 28 28 27 27 27 27 27 28 27 27 28 28 28 28 28 28 28 27 27 27 27 26 25 25 26 26 24 23 23 23 23 23 23 24
Wind_Direction
251 251 251 251 252 252 253 253 254 254 255 255 256 257 258 259 260 258 256 254 253 252 251 251 251 252 252 251 251 252 252 248 245 243 241 236 232 230 231 231 231 231
255 254 254 253 253 254 255 255 257 257 258 259 259 261 261 261 261 260 260 259 258 257 256 256 255 255 255 255 255 255 254 251 245 241 238 233 230 229 231 233 234 234
259 257 256 256 256 257 258 259 259 259 260 261 261 262 262 262 263 262 262 261 261 261 260 260 260 261 260 260 258 256 255 254 250 243 237 232 229 230 234 235 235 235
262 261 259 259 259 260 260 260 260 260 261 262 262 263 264 264 263 263 263 262 262 262 262 262 263 263 263 261 259 259 257 256 253 247 240 237 235 235 237 237 235 235
266 264 262 261 260 261 261 260 261 262 263 264 265 265 265 265 264 264 263 262 262 262 262 262 262 262 262 261 261 263 262 259 256 251 246 243 242 240 240 238 235 235
266 265 263 262 261 261 261 262 263 264 265 266 267 267 267 266 265 264 263 263 262 262 262 261 260 260 261 258 260 265 264 260 258 254 250 248 247 244 241 238 236 236
266 266 266 264 264 262 263 264 265 265 266 268 268 268 267 266 265 265 264 263 263 262 262 261 259 259 260 257 259 264 264 261 258 255 253 250 248 245 242 240 239 238
270 270 269 267 266 265 265 266 266 267 267 268 268 268 267 266 266 265 264 263 263 262 261 260 258 258 259 256 259 265 265 262 258 255 255 254 252 250 249 247 245 243
275 273 270 268 267 267 267 267 268 269 269 268 268 268 267 266 265 265 263 262 262 261 260 259 258 257 257 255 258 265 268 266 262 257 256 257 257 257 255 251 248 246
279 276 271 268 268 267 268 268 267 268 268 267 267 267 266 265 264 263 262 261 259 259 258 257 257 257 257 256 258 263 267 268 266 261 259 258 257 257 255 251 249 247
282 278 273 270 269 268 268 268 266 265 265 265 264 263 263 264 263 261 259 258 257 258 258 257 256 257 258 258 258 260 264 267 268 265 262 259 258 256 254 252 250 249
286 282 277 275 273 272 271 270 268 267 265 264 263 261 261 261 261 260 258 257 257 258 259 258 257 258 259 260 259 259 262 265 266 265 263 260 259 257 255 253 251 250
291 288 285 282 279 277 275 273 271 269 267 266 264 261 260 259 259 259 258 258 258 259 259 258 258 259 261 261 260 259 261 262 263 263 262 260 259 258 256 254 252 251
300 297 292 288 285 282 279 277 274 272 270 268 265 262 261 260 259 259 259 259 259 258 258 258 257 258 261 262 260 260 260 261 261 262 260 259 258 257 255 253 252 250
307 303 298 294 290 287 284 282 279 277 275 272 268 265 263 261 259 259 258 258 257 257 256 255 255 256 259 261 260 260 260 261 262 261 260 258 257 256 254 252 250 249
311 308 304 299 295 292 289 286 284 281 278 275 272 269 265 261 258 256 255 255 255 255 254 254 254 255 257 259 259 259 261 261 261 260 258 257 255 253 252 250 249 247
315 313 309 304 300 296 292 289 287 284 280 277 274 270 267 263 258 255 254 254 254 255 254 254 254 255 256 259 259 259 260 260 260 259 257 255 253 251 249 249 247 245
318 315 312 309 306 302 297 293 288 284 280 278 274 271 268 263 258 256 255 254 253 253 253 254 255 255 256 258 260 259 259 259 258 257 256 253 251 249 247 247 245 242
320 316 313 312 311 307 301 295 289 284 281 278 276 274 269 263 260 258 256 254 253 252 253 254 254 254 255 257 260 260 258 258 256 255 253 251 250 248 246 244 242 239
323 319 315 314 313 309 303 296 290 286 283 280 277 273 267 263 261 259 257 255 253 253 254 254 254 254 253 255 259 260 258 256 255 253 251 249 248 247 244 242 240 237
329 323 318 316 314 309 303 296 290 287 284 282 278 273 268 266 263 261 259 257 255 254 254 253 254 254 253 254 256 258 256 254 252 250 247 247 246 245 244 242 239 236
331 325 320 317 314 309 302 296 291 288 285 283 278 273 269 266 263 260 259 258 256 254 252 253 254 253 252 252 253 255 254 251 249 246 244 243 243 242 242 240 237 233
331 326 321 317 314 308 302 298 294 290 287 282 276 272 269 265 263 262 260 258 256 254 252 253 253 253 252 252 251 252 251 246 243 242 240 240 240 240 239 236 233 230
328 325 321 317 313 308 303 300 297 292 289 283 276 272 270 268 266 264 261 258 256 254 253 254 253 253 253 251 250 249 246 243 240 238 236 236 235 235 234 232 229 226
325 324 320 317 313 309 305 302 299 295 291 285 278 273 271 269 266 263 261 258 256 255 254 253 253 254 252 251 250 248 244 240 236 233 230 229 229 227 226 225 223 220
322 321 319 316 313 310 307 303 299 296 291 285 280 276 272 268 264 261 259 258 256 254 252 251 251 252 252 251 250 247 243 237 232 228 224 222 221 220 217 215 214 211
Height
798 798 799 799 799 800 801 802 803 803 803 804 804 804 805 807 808 809 810 811 811 812 812 813 814 815 816 817 818 818 817 816 815 815 815 815 815 816 817 818 818 819
795 796 796 797 797 798 799 800 800 800 800 801 801 802 803 804 806 806 807 808 808 809 809 810 811 811 812 812 813 814 814 813 811 810 810 809 809 811 812 813 815 816
793 793 794 794 795 795 796 797 797 797 797 798 799 800 801 802 803 804 804 805 805 805 806 807 807 807 808 808 809 810 810 809 808 807 807 805 805 805 806 809 811 812
790 790 791 792 792 793 794 794 794 794 795 795 796 797 799 799 800 800 801 802 802 802 803 803 803 803 804 805 805 806 805 805 805 805 804 803 802 802 802 804 806 807
787 788 788 789 789 790 791 791 790 791 792 792 794 795 796 796 797 797 797 798 798 798 799 799 799 800 800 801 801 801 801 801 802 803 802 801 800 800 800 801 802 803
783 784 785 786 786 787 788 787 787 789 789 790 791 792 793 793 793 794 794 794 794 795 795 795 796 796 797 798 798 797 797 798 799 800 799 798 798 798 798 798 799 800
780 781 782 783 784 784 784 784 785 786 787 788 789 789 789 790 790 790 790 791 791 791 792 792 792 793 794 794 794 793 793 794 795 796 796 795 796 796 796 796 796 796
778 779 780 780 781 781 781 781 782 783 784 785 785 785 786 786 786 786 787 787 788 788 788 789 789 790 790 791 790 789 790 790 791 792 793 793 793 793 793 793 793 793
777 777 778 778 778 778 778 778 779 780 782 782 782 782 783 782 782 783 783 784 784 784 785 785 785 786 787 787 787 786 786 787 788 788 789 789 789 789 789 790 790 790
775 775 776 775 775 774 774 774 775 776 777 778 778 778 779 779 779 780 780 780 780 780 781 781 782 783 783 784 783 783 784 783 784 785 785 785 786 786 786 787 787 787
773 773 773 772 772 771 771 771 772 772 773 773 773 774 775 776 776 776 776 776 776 777 777 778 779 779 780 780 780 780 780 780 780 781 781 781 782 782 783 783 783 783
771 770 770 769 769 769 769 769 770 770 770 770 770 771 771 772 772 773 773 773 773 774 774 774 775 776 776 776 777 777 777 777 777 777 777 778 778 779 779 780 780 780
769 768 768 767 767 767 767 767 767 767 767 767 768 768 769 769 769 769 770 770 770 770 771 772 772 773 773 773 774 774 774 774 774 773 774 774 774 775 776 776 776 776
768 767 767 766 766 766 765 765 764 764 764 764 765 765 765 766 766 766 767 767 767 767 767 768 769 769 770 770 771 771 771 771 770 770 770 770 770 771 772 772 772 773
767 766 765 765 764 763 763 762 762 762 762 762 761 761 761 762 762 763 763 763 763 763 764 764 765 765 766 767 768 768 769 768 768 768 768 767 767 768 768 768 769 769
765 765 764 763 762 761 760 760 760 760 759 759 759 758 758 759 759 759 759 759 759 759 760 760 760 761 762 764 764 765 766 766 765 765 765 765 765 765 765 765 766 767
763 762 761 760 759 759 758 757 757 757 756 756 756 756 756 756 756 756 755 756 756 756 756 756 757 758 759 761 761 762 763 762 762 762 762 762 762 762 762 762 763 764
761 760 759 758 757 756 755 755 754 753 753 753 752 752 753 753 753 752 752 752 752 752 752 752 753 754 756 757 758 759 760 759 759 759 759 759 759 759 760 760 761 762
761 759 757 756 755 754 753 752 751 750 749 749 749 749 750 749 749 749 749 749 748 748 748 748 749 751 753 754 755 756 757 757 756 756 756 757 757 757 758 758 759 760
760 758 756 754 753 752 751 749 748 747 746 746 746 746 746 745 745 745 745 745 745 745 745 745 746 747 749 751 752 753 754 754 753 753 753 754 754 755 756 756 757 757
758 756 754 753 751 750 749 747 746 745 744 744 744 743 743 742 742 742 742 742 742 742 742 742 742 744 746 748 749 750 751 751 750 750 751 751 752 753 753 754 755 755
756 754 752 751 750 749 747 745 744 743 742 742 741 740 740 739 738 738 738 738 739 739 739 738 739 741 743 744 746 747 747 748 748 748 748 748 749 750 751 751 752 753
754 753 751 749 748 747 745 744 743 741 740 740 739 737 736 736 735 735 735 735 735 735 735 735 736 738 740 741 742 744 744 745 745 745 745 746 746 747 748 749 750 751
753 751 749 747 746 745 744 742 741 740 739 738 737 735 733 733 733 732 732 732 732 732 733 733 733 736 738 739 739 741 741 742 742 743 743 744 744 745 746 747 748 749
751 749 748 746 744 743 742 741 739 738 737 736 735 733 732 731 731 730 729 730 730 730 731 731 732 733 735 736 737 738 739 739 740 741 741 741 742 743 744 745 746 748
749 747 746 744 742 741 739 738 737 736 735 734 733 731 730 729 728 728 727 727 727 728 728 729 730 731 732 733 734 735 736 737 737 738 738 739 741 741 742 743 744 745